Terminal Aerodrome Forecast
Issued by NWS

Home | Current Version | Previous Version | Text Only | Print | Product List | Glossary On
Versions: 1 2 3 4 5 6 7 8 9 10 11 12
000
FTUS46 KSTO 041733
TAFMHR
TAF
KMHR 041733Z 0418/0518 21009KT P6SM FEW250
     FM042100 21012G20KT P6SM SKC
     FM050300 20010KT P6SM SKC
     FM050600 16005KT P6SM SKC=

USA.gov is the U.S. government's official web portal to all federal, state and local government web resources and services.